DW1232 Weather Reports


time (UTC)temp
C
wind
direction
speed
KPH
gust
KPH
rain 1hr
cm
rain 24hr
cm
rain mn
cm
humidity
%
barometer
mb
20260509181550 26 216 1.6 1.6 0.00 0.48 0.51 53 1008.1
20260509180544 26 216 1.6 1.6 0.00 0.48 0.51 53 1008.1
20260509180213 26 215 1.6 9.7 0.00 0.48 0.51 53 1008.2
20260509175156 26 227 1.6 9.7 0.00 0.48 0.51 54 1008.3
20260509174125 26 271 1.6 9.7 0.00 0.48 0.51 56 1008.5
20260509173106 26 229 3.2 8.0 0.00 0.48 0.51 56 1008.6
20260509172102 26 243 1.6 8.0 0.00 0.48 0.51 57 1008.7
20260509171107 25 274 1.6 9.7 0.00 0.48 0.51 63 1008.8
20260509170046 25 315 1.6 9.7 0.00 0.48 0.51 58 1008.8
20260509165013 25 242 3.2 9.7 0.00 0.48 0.51 63 1008.9
20260509164006 25 227 3.2 9.7 0.00 0.48 0.51 62 1009.0
20260509162936 25 248 1.6 6.4 0.00 0.48 0.51 64 1009.0
20260509161951 24 223 1.6 14.5 0.00 0.48 0.51 65 1009.1
20260509161009 24 333 1.6 14.5 0.00 0.48 0.51 64 1009.1
20260509155953 23 267 1.6 8.0 0.00 0.48 0.51 65 1009.0
20260509153811 22 328 1.6 9.7 0.00 0.48 0.51 69 1009.1
20260509152738 22 275 1.6 9.7 0.00 0.48 0.51 69 1009.0
20260509151753 22 271 1.6 11.3 0.00 0.48 0.51 71 1009.0
20260509150728 21 328 1.6 11.3 0.00 0.48 0.51 71 1009.0
20260509145719 21 267 0.0 6.4 0.00 0.48 0.51 72 1009.0
20260509144659 20 271 1.6 8.0 0.00 0.48 0.51 76 1009.1
20260509142614 19 270 1.6 11.3 0.00 0.48 0.51 79 1009.1
20260509141545 18 304 3.2 11.3 0.00 0.48 0.51 81 1009.0
20260509135445 17 40 3.2 9.7 0.00 0.48 0.51 86 1009.1
20260509134500 16 355 1.6 8.0 0.00 0.48 0.51 88 1008.9
20260509133435 16 325 0.0 6.4 0.00 0.48 0.51 88 1008.8
20260509132442 15 316 1.6 6.4 0.00 0.48 0.51 89 1008.7
20260509131503 15 337 1.6 9.7 0.00 0.48 0.51 92 1008.8
20260509130451 14 269 1.6 9.7 0.00 0.48 0.51 93 1008.5
20260509125511 13 311 0.0 6.4 0.00 0.48 0.51 94 1008.4
20260509123418 13 9 0.0 4.8 0.00 0.48 0.51 93 1008.2
20260509122432 13 13 0.0 8.0 0.00 0.48 0.51 92 1008.1
20260509121440 13 343 1.6 9.7 0.00 0.48 0.51 92 1007.8
20260509120456 13 327 1.6 9.7 0.00 0.48 0.51 92 1007.7
20260509115443 13 302 0.0 6.4 0.00 0.48 0.51 91 1007.7
20260509114434 13 299 1.6 11.3 0.00 0.48 0.51 91 1007.4
20260509113452 13 336 1.6 11.3 0.00 0.48 0.51 90 1007.3
20260509112504 14 290 3.2 11.3 0.00 0.48 0.51 90 1007.3
20260509111445 14 264 3.2 16.1 0.00 0.48 0.51 89 1007.1
20260509110444 15 290 6.4 16.1 0.00 0.48 0.51 87 1006.9
20260509103117 18 336 4.8 27.4 0.00 0.48 0.51 66 1005.9
20260509102047 18 119 16.1 27.4 0.00 0.48 0.51 59 1004.5
20260509094835 17 159 3.2 16.1 0.00 0.48 0.51 70 1008.4
20260509093840 16 130 3.2 29.0 0.00 0.48 0.51 79 1008.5
20260509092812 16 63 8.0 29.0 0.10 0.48 0.51 81 1008.5
20260509091745 13 73 6.4 12.9 0.13 0.48 0.48 96 1008.6
20260509090802 13 140 1.6 11.3 0.15 0.48 0.48 97 1010.2
20260509085755 13 142 4.8 12.9 0.66 0.46 0.46 97 1010.7
20260509084814 13 350 0.0 12.9 0.46 0.23 0.25 96 1011.7
20260509083815 13 350 4.8 12.9 0.79 0.15 0.15 96 1011.3
20260509081623 16 103 4.8 16.1 0.00 0.00 0.00 98 1010.4
20260509080634 16 338 4.8 12.9 0.00 0.00 0.00 98 1010.1
20260509072226 17 77 0.0 8.0 0.00 0.00 0.00 98 1009.9
20260509071155 17 63 3.2 9.7 0.00 0.00 0.00 98 1009.9
20260509070214 16 188 3.2 9.7 0.00 0.00 0.00 98 1008.4
20260509065156 17 200 3.2 8.0 0.00 0.00 0.00 98 1008.4
20260509064131 17 227 4.8 11.3 0.00 0.00 0.00 98 1008.3
20260509063150 16 196 3.2 11.3 0.00 0.00 0.00 98 1008.2
20260509062213 15 207 0.0 11.3 0.00 0.00 0.00 97 1008.0
20260509061144 15 123 0.0 0.0 0.00 0.00 0.00 96 1007.9
20260509060118 15 123 0.0 0.0 0.00 0.00 0.00 96 1007.4
20260509055122 15 123 0.0 0.0 0.00 0.00 0.00 96 1007.5
20260509054131 15 123 0.0 1.6 0.00 0.00 0.00 96 1007.6
20260509053110 16 123 0.0 0.0 0.00 0.00 0.00 96 1007.7
20260509050922 15 123 0.0 0.0 0.00 0.00 0.00 95 1008.0
20260509045850 15 123 0.0 0.0 0.00 0.00 0.00 95 1008.2
20260509043724 16 123 0.0 0.0 0.00 0.00 0.00 95 1008.1
20260509041607 16 123 0.0 0.0 0.00 0.00 0.00 94 1007.9
20260509040546 16 123 0.0 0.0 0.00 0.00 0.00 94 1007.9
20260509035558 16 123 0.0 0.0 0.00 0.00 0.00 93 1008.0
20260509034538 16 123 0.0 0.0 0.00 0.00 0.00 93 1008.0
20260509033544 17 123 0.0 0.0 0.00 0.00 0.00 93 1008.0
20260509031409 17 123 0.0 0.0 0.00 0.00 0.00 92 1007.9
20260509030428 17 123 0.0 0.0 0.00 0.00 0.00 92 1007.7
20260509025407 17 123 0.0 0.0 0.00 0.00 0.00 92 1007.5
20260509023230 17 123 0.0 0.0 0.00 0.00 0.00 91 1007.4
20260509022227 17 123 0.0 0.0 0.00 0.00 0.00 91 1007.1
20260509021204 18 123 0.0 1.6 0.00 0.00 0.00 91 1006.9
20260509020148 18 123 1.6 6.4 0.00 0.00 0.00 90 1006.8
20260509014009 18 123 0.0 3.2 0.00 0.00 0.00 89 1006.5
20260509011833 19 123 0.0 6.4 0.00 0.00 0.00 87 1006.4
20260509010845 20 123 0.0 0.0 0.00 0.00 0.00 86 1006.4
20260509003515 21 189 3.2 11.3 0.00 0.00 0.00 84 1006.1
20260509002534 21 193 6.4 12.9 0.00 0.00 0.00 83 1006.1
20260509001523 21 167 6.4 12.9 0.00 0.00 0.00 82 1006.1
20260508235442 21 144 4.8 12.9 0.00 0.00 0.00 83 1006.1
20260508234417 21 186 4.8 12.9 0.00 0.00 0.00 82 1006.0
20260508233410 21 179 6.4 11.3 0.00 0.00 0.00 82 1006.3
20260508232412 21 174 3.2 11.3 0.00 0.00 0.00 83 1006.3
20260508231426 21 177 4.8 11.3 0.00 0.00 0.00 83 1006.4
20260508230448 21 149 4.8 11.3 0.00 0.00 0.00 82 1006.4
20260508225508 21 173 6.4 14.5 0.00 0.00 0.00 81 1006.4
20260508224448 21 140 8.0 16.1 0.00 0.00 0.00 82 1006.2
20260508222322 21 124 9.7 16.1 0.00 0.00 0.00 82 1006.2
20260508221335 21 144 8.0 16.1 0.00 0.00 0.00 82 1006.2
20260508220330 20 177 8.0 16.1 0.00 0.00 0.00 82 1006.5
20260508215306 21 117 8.0 16.1 0.00 0.00 0.00 82 1006.3
20260508214320 21 200 8.0 14.5 0.00 0.00 0.00 82 1006.6
20260508213300 21 198 8.0 14.5 0.00 0.00 0.00 82 1006.6